This demonstration page uses our WeatherBlox Daily Observations layout. Learn more.

Left ArrowRight Arrow

40.92945, -100.16068

Hourly Observations for November 16, 2018

Temp ( °F °C ) Dew Point ( °F °C ) Humidity (%) Winds ( mph kmh ) Pressure ( in mb ) Visibility ( mi km ) Precip ( " mm )
12:15 am 00:15 Clear 28 -2.5 22 -5.6 80 80 W 5 7 30.24 1024 10 16.0934 0 0
12:35 am 00:35 Clear 26 -3.1 21 -6 81 81 W 5 7 30.24 1024 10 16.0934 0 0
12:55 am 00:55 Clear 28 -2.4 22 -5.7 78 78 W 3 6 30.24 1024 10 16.0934 0 0
1:15 am 01:15 Clear 28 -2.4 22 -5.7 78 78 Calm 30.24 1024 10 16.0934 0 0
1:35 am 01:35 Clear 26 -3.2 21 -6 81 81 Calm 30.21 1023 10 16.0934 0 0
1:55 am 01:55 Clear 25 -3.7 21 -6.2 83 83 NW 6 9 30.24 1024 10 16.0934 0 0
2:15 am 02:15 Clear 25 -4.1 20 -6.5 84 84 WNW 5 7 30.21 1023 10 16.0934 0 0
2:35 am 02:35 Clear 25 -3.7 21 -6.1 84 84 W 5 7 30.21 1023 10 16.0934 0 0
2:55 am 02:55 Clear 27 -3 22 -5.7 82 82 WNW 5 7 30.21 1023 10 16.0934 0 0
3:15 am 03:15 Clear 26 -3.1 21 -5.9 81 81 W 7 11 30.21 1023 10 16.0934 0 0
3:35 am 03:35 Clear 27 -3 22 -5.6 82 82 W 8 13 30.21 1023 10 16.0934 0 0
3:55 am 03:55 Clear 27 -3 22 -5.6 82 82 W 5 7 30.21 1023 10 16.0934 0 0
4:15 am 04:15 Clear 27 -2.6 22 -5.3 82 82 W 3 6 30.18 1022 10 16.0934 0 0
4:35 am 04:35 Clear 27 -2.9 22 -5.4 83 83 WNW 6 9 30.18 1022 10 16.0934 0 0
4:55 am 04:55 Clear 26 -3.5 21 -6 83 83 W 3 6 30.18 1022 10 16.0934 0 0
5:15 am 05:15 Clear 25 -3.8 21 -6 85 85 W 6 9 30.18 1022 10 16.0934 0 0
5:35 am 05:35 Clear 23 -4.8 20 -6.8 86 86 W 5 7 30.18 1022 10 16.0934 0 0
5:55 am 05:55 Clear 22 -5.4 19 -7.1 88 88 Calm 30.21 1023 10 16.0934 0 0
6:15 am 06:15 Clear 24 -4.6 20 -6.5 87 87 Calm 30.18 1022 10 16.0934 0 0
6:35 am 06:35 Clear 24 -4.5 20 -6.4 87 87 Calm 30.18 1022 10 16.0934 0 0
6:55 am 06:55 Clear 23 -5 19 -7 86 86 Calm 30.21 1023 10 16.0934 0 0
7:15 am 07:15 Clear 23 -4.9 20 -6.6 88 88 Calm 30.21 1023 10 16.0934 0 0
7:35 am 07:35 Sunny 24 -4.6 20 -6.6 86 86 Calm 30.18 1022 10 16.0934 0 0
7:55 am 07:55 Sunny 24 -4.7 20 -6.6 87 87 Calm 30.18 1022 10 16.0934 0 0
8:15 am 08:15 Sunny 26 -3.2 23 -5.2 86 86 Calm 30.18 1022 10 16.0934 0 0
8:35 am 08:35 Sunny 31 -0.8 26 -3.1 85 85 ESE 3 6 30.15 1021 10 16.0934 0 0
8:55 am 08:55 Sunny 35 1.5 28 -2 78 78 SSE 6 9 30.12 1020 10 16.0934 0 0
9:15 am 09:15 Sunny 39 3.7 30 -0.9 72 72 SSE 5 7 30.12 1020 10 16.0934 0 0
9:35 am 09:35 Sunny 44 6.4 32 -0.2 63 63 S 10 17 30.06 1018 10 16.0934 0 0
9:55 am 09:55 Sunny 46 7.8 30 -0.9 54 54 S 13 20 30.03 1017 10 16.0934 0 0
10:15 am 10:15 Sunny 48 9 29 -1.5 48 48 SSW 14 22 30.03 1017 10 16.0934 0 0
10:35 am 10:35 Sunny 49 9.7 30 -1.3 47 47 SSW 13 20 30.03 1017 10 16.0934 0 0
10:55 am 10:55 Sunny 51 10.3 29 -1.8 43 43 SSW 16 26 29.97 1015 10 16.0934 0 0
11:15 am 11:15 Sunny 52 11.2 29 -1.8 41 41 SSW 21 33 29.94 1014 10 16.0934 0 0
11:35 am 11:35 Sunny 53 11.5 29 -1.6 40 40 SSW 16 26 29.94 1014 10 16.0934 0 0
11:55 am 11:55 Sunny 54 12.2 30 -1 40 40 SSW 21 33 29.94 1014 10 16.0934 0 0
12:15 pm 12:15 Sunny 56 13.5 30 -0.9 37 37 SSW 21 33 29.88 1012 10 16.0934 0 0
12:35 pm 12:35 Sunny 58 14.5 30 -1.1 34 34 SSW 25 41 29.85 1011 10 16.0934 0 0
12:55 pm 12:55 Sunny 60 15.3 30 -1.2 32 32 SW 22 35 29.83 1010 10 16.0934 0 0
1:15 pm 13:15 Sunny 61 16 30 -1.3 31 31 SW 24 39 29.8 1009 10 16.0934 0 0
1:35 pm 13:35 Sunny 61 16.3 30 -1.2 30 30 SW 25 41 29.8 1009 10 16.0934 0 0
1:55 pm 13:55 Sunny 62 16.7 30 -1.2 30 30 SW 22 35 29.77 1008 10 16.0934 0 0
2:15 pm 14:15 Sunny 63 17.1 30 -1.3 29 29 SW 21 33 29.77 1008 10 16.0934 0 0
2:35 pm 14:35 Sunny 63 17.4 30 -1 29 29 SW 18 30 29.77 1008 10 16.0934 0 0
2:55 pm 14:55 Sunny 64 17.6 31 -0.7 29 29 SW 20 31 29.77 1008 10 16.0934 0 0
3:15 pm 15:15 Sunny 64 17.7 31 -0.5 29 29 SW 16 26 29.77 1008 10 16.0934 0 0
3:35 pm 15:35 Sunny 64 17.7 31 -0.6 29 29 SSW 18 30 29.77 1008 10 16.0934 0 0
3:55 pm 15:55 Sunny 64 17.6 31 -0.4 30 30 SSW 14 22 29.77 1008 10 16.0934 0 0
4:15 pm 16:15 Sunny 63 17.3 31 -0.3 30 30 SSW 14 22 29.77 1008 10 16.0934 0 0
4:35 pm 16:35 Sunny 62 16.6 32 -0.1 32 32 SSW 10 17 29.77 1008 10 16.0934 0 0
4:55 pm 16:55 Sunny 58 14.6 32 -0.1 37 37 SSW 9 15 29.8 1009 10 16.0934 0 0
5:15 pm 17:15 Sunny 55 12.9 32 0 41 41 SSW 10 17 29.8 1009 10 16.0934 0 0
5:35 pm 17:35 Clear 52 11.3 32 0 46 46 S 8 13 29.85 1011 10 16.0934 0 0
5:55 pm 17:55 Clear 49 9.5 32 0 52 52 S 5 7 29.85 1011 10 16.0934 0 0
6:15 pm 18:15 Clear 50 10 32 0 50 50 Calm 29.85 1011 10 16.0934 0 0
6:35 pm 18:35 Clear 47 8.5 32 0 55 55 W 3 6 29.91 1013 10 16.0934 0 0
6:55 pm 18:55 Clear 49 9.5 32 0 52 52 N 8 13 29.88 1012 10 16.0934 0 0
7:15 pm 19:15 Partly Cloudy 49 9.5 32 0 52 52 N 15 24 29.91 1013 10 16.0934 0 0
7:35 pm 19:35 Partly Cloudy 51 10.7 30 -1.1 44 44 N 12 19 29.94 1014 10 16.0934 0 0
7:55 pm 19:55 Clear 51 10.3 31 -0.6 47 47 N 15 24 29.94 1014 10 16.0934 0 0
8:15 pm 20:15 Clear 49 9.4 31 -0.6 50 50 N 14 22 29.94 1014 10 16.0934 0 0
8:35 pm 20:35 Partly Cloudy 47 8.6 31 -0.5 53 53 N 13 20 30 1016 10 16.0934 0 0
8:55 pm 20:55 Clear 47 8.2 31 -0.3 55 55 N 13 20 30 1016 10 16.0934 0 0
9:15 pm 21:15 Clear 46 7.9 32 -0.1 57 57 N 10 17 30 1016 10 16.0934 0 0
9:35 pm 21:35 Clear 46 7.7 32 0 59 59 N 14 22 30.03 1017 10 16.0934 0 0
9:55 pm 21:55 Clear 45 7.1 32 0 61 61 N 15 24 30.03 1017 10 16.0934 0 0
10:15 pm 22:15 Clear 44 6.6 32 0 63 63 N 13 20 30.09 1019 10 16.0934 0 0
10:35 pm 22:35 Clear 44 6.5 32 0 64 64 N 12 19 30.09 1019 10 16.0934 0 0
10:55 pm 22:55 Clear 45 7 32 0 61 61 N 18 30 30.09 1019 10 16.0934 0 0
11:15 pm 23:15 Partly Cloudy 44 6.6 32 0 63 63 N 20 31 30.09 1019 10 16.0934 0 0
11:35 pm 23:35 Mostly Cloudy 43 6.2 32 -0.2 64 64 N 29 46 30.09 1019 10 16.0934 0 0
11:55 pm 23:55 Mostly Cloudy 42 5.5 31 -0.3 67 67 N 23 37 30.12 1020 10 16.0934 0 0

Powered by AerisWeather